TimeMST,TemperatureF,Dew PointF,Humidity,Sea Level PressureIn,VisibilityMPH,Wind Direction,Wind SpeedMPH,Gust SpeedMPH,PrecipitationIn,Events,Conditions,WindDirDegrees,DateUTC
12:53 AM,30.9,18.0,59,30.17,10.0,SSW,4.6,-,N/A,,Clear,210,2012-11-07 07:53:00
1:53 AM,30.0,18.0,61,30.15,10.0,SSW,8.1,-,N/A,,Clear,210,2012-11-07 08:53:00
2:53 AM,28.9,18.0,64,30.14,10.0,South,3.5,-,N/A,,Clear,190,2012-11-07 09:53:00
3:53 AM,28.0,17.1,63,30.14,10.0,Calm,Calm,-,N/A,,Clear,0,2012-11-07 10:53:00
4:53 AM,27.0,17.1,66,30.19,10.0,Calm,Calm,-,N/A,,Clear,0,2012-11-07 11:53:00
5:53 AM,27.0,16.0,63,30.23,10.0,SSE,8.1,-,N/A,,Clear,160,2012-11-07 12:53:00
6:53 AM,27.0,16.0,63,30.24,10.0,SSW,6.9,-,N/A,,Clear,200,2012-11-07 13:53:00
7:53 AM,34.0,19.9,56,30.20,10.0,South,3.5,-,N/A,,Clear,190,2012-11-07 14:53:00
8:53 AM,42.1,15.1,34,30.15,10.0,Calm,Calm,-,N/A,,Clear,0,2012-11-07 15:53:00
9:53 AM,48.0,18.0,30,30.10,10.0,North,4.6,-,N/A,,Clear,350,2012-11-07 16:53:00
10:53 AM,53.1,16.0,23,30.06,10.0,North,6.9,-,N/A,,Clear,350,2012-11-07 17:53:00
11:53 AM,57.9,16.0,19,30.01,10.0,North,4.6,-,N/A,,Clear,360,2012-11-07 18:53:00
12:53 PM,61.0,15.1,17,29.96,10.0,North,6.9,-,N/A,,Clear,360,2012-11-07 19:53:00
1:53 PM,62.1,12.9,15,29.93,10.0,North,10.4,-,N/A,,Clear,360,2012-11-07 20:53:00
2:53 PM,62.1,15.1,16,29.92,10.0,North,9.2,-,N/A,,Clear,350,2012-11-07 21:53:00
3:53 PM,59.0,16.0,19,29.95,10.0,NNW,9.2,17.3,N/A,,Clear,330,2012-11-07 22:53:00
4:53 PM,53.1,16.0,23,30.00,10.0,NW,3.5,-,N/A,,Clear,310,2012-11-07 23:53:00
5:53 PM,39.9,18.0,41,30.08,10.0,South,6.9,-,N/A,,Clear,190,2012-11-08 00:53:00
6:53 PM,39.9,18.0,41,30.09,10.0,SSW,8.1,-,N/A,,Clear,210,2012-11-08 01:53:00
7:53 PM,37.9,18.0,45,30.06,10.0,SSW,9.2,-,N/A,,Clear,210,2012-11-08 02:53:00
8:53 PM,35.1,18.0,50,30.03,10.0,South,5.8,-,N/A,,Clear,180,2012-11-08 03:53:00
9:53 PM,30.9,18.0,59,30.02,10.0,SSW,6.9,-,N/A,,Clear,210,2012-11-08 04:53:00
10:53 PM,32.0,17.1,54,29.98,10.0,South,4.6,-,N/A,,Clear,190,2012-11-08 05:53:00
11:53 PM,32.0,17.1,54,29.95,10.0,SSW,6.9,-,N/A,,Clear,210,2012-11-08 06:53:00